Regional Weather Roundup
Issued by NWS

Home | Current Version | Previous Version | Graphics & Text | Print | Product List | Glossary On
Versions: 1 2 3 4 5 6 7 8 9 10 11 12 13 14 15 16 17 18 19 20 21 22 23 24 25 26 27 28 29 30 31 32 33 34 35 36 37 38 39 40 41 42 43 44 45 46 47 48 49 50
000
ASUS43 KMKX 161800
RWRWI

WISCONSIN REGIONAL WEATHER ROUNDUP
NATIONAL WEATHER SERVICE MILWAUKEE/SULLIVAN WI
100 PM CDT MON OCT 16 2017

NOTE: "FAIR" INDICATES FEW OR NO CLOUDS BELOW 12,000 FEET WITH NO
SIGNIFICANT WEATHER AND/OR OBSTRUCTIONS TO VISIBILITY.

WIZ001-002-006>008-014>016-023>028-161900-
NORTHWEST WISCONSIN

CITY           SKY/WX    TMP DP  RH WIND       PRES   REMARKS
SUPERIOR ARPT  SUNNY     58  36  43 SW13G25   30.09F
6HR MIN TEMP:  34; 6HR MAX TEMP:  58;

ASHLAND        SUNNY     57  36  45 SW17      30.11F
6HR MIN TEMP:  33; 6HR MAX TEMP:  58;

HAYWARD        SUNNY     56  35  45 SW12G21   30.13F
6HR MIN TEMP:  30; 6HR MAX TEMP:  56;

SIREN          SUNNY     55  36  48 SW10      30.16F
CUMBERLAND     SUNNY     52  34  50 SW12G21   30.18F
RICE LAKE      SUNNY     56  33  42 W13G20    30.20F
CHETEK         SUNNY     55  36  48 W12G18    30.19F
LADYSMITH      SUNNY     56  37  47 SW15G23   30.18F
6HR MIN TEMP:  32; 6HR MAX TEMP:  56;

EAU CLAIRE     NOT AVBL
MENOMONIE      SUNNY     58  35  43 SW13G22   30.20F
6HR MIN TEMP:  33; 6HR MAX TEMP:  58;

NEW RICHMOND   SUNNY     57  35  44 SW13      30.19F
OSCEOLA        SUNNY     57  36  44 SW14G20   30.21F
$$

WIZ003>005-009-010-017-018-161900-
NORTH CENTRAL WISCONSIN

CITY           SKY/WX    TMP DP  RH WIND       PRES   REMARKS
MANITOWISH WTR SUNNY     53  36  53 SW10G16   30.14F
ARBOR VITAE    SUNNY     53  38  56 SW9       30.15F
WOODRUFF       SUNNY     53  38  56 SW9       30.15F
RHINELANDER    SUNNY     53  36  52 W18G25    30.16F
6HR MIN TEMP:  31; 6HR MAX TEMP:  54;

EAGLE RIVER    SUNNY     51  35  54 W12       30.15F
LAND O LAKES   MOSUNNY   52  35  52 SW7       30.15F
PHILLIPS       SUNNY     53  37  54 SW14G21   30.15F
6HR MIN TEMP:  31; 6HR MAX TEMP:  53;

TOMAHAWK       MOSUNNY   53  35  51 SW7       30.17F
MEDFORD        SUNNY     53  35  50 SW10G18   30.20S
MERRILL        SUNNY     56  37  49 W13       30.18F
6HR MIN TEMP:  27; 6HR MAX TEMP:  56;

$$

WIZ029-030-035-036-043>047-161900-
CENTRAL WISCONSIN

CITY           SKY/WX    TMP DP  RH WIND       PRES   REMARKS
WAUSAU         SUNNY     55  36  48 SW12G20   30.18F
6HR MIN TEMP:  33; 6HR MAX TEMP:  55;

MOSINEE        NOT AVBL
MARSHFIELD     SUNNY     56  35  45 W14       30.20F
6HR MIN TEMP:  32; 6HR MAX TEMP:  56;

STEVENS POINT  SUNNY     53  35  50 SW9       30.22F
WAUPACA        SUNNY     58  36  43 S10       30.23F
WAUTOMA        SUNNY     58  36  43 SW10      30.24F
6HR MIN TEMP:  32; 6HR MAX TEMP:  58;

WISC RAPIDS    SUNNY     57  40  52 SW10G20   30.23F
6HR MIN TEMP:  31; 6HR MAX TEMP:  58;

CAMP DOUGLAS   NOT AVBL
$$

WIZ011>013-019>022-031-037>040-048>050-161900-
NORTHEAST WISCONSIN

CITY           SKY/WX    TMP DP  RH WIND       PRES   REMARKS
ANTIGO         MOSUNNY   52  38  60 W12       30.19F
SHAWANO        SUNNY     58  39  49 SW7G17    30.20F
6HR MIN TEMP:  36; 6HR MAX TEMP:  58;

OCONTO         SUNNY     55  37  50 SW12G17   30.21F
STURGEON BAY   SUNNY     53  39  59 MISG      30.21F
6HR MIN TEMP:  39; 6HR MAX TEMP:  54;

GREEN BAY      SUNNY     55  41  59 SW13      30.22F
6HR MIN TEMP:  37; 6HR MAX TEMP:  56;

MANITOWOC      SUNNY     56  37  49 SW10      30.24F
6HR MIN TEMP:  42; 6HR MAX TEMP:  56;

APPLETON       SUNNY     55  32  41 SW12G17   30.22F
CLINTONVILLE   MOSUNNY   55  37  50 W7        30.22F
OSHKOSH        SUNNY     56  37  49 SW8       30.23F
6HR MIN TEMP:  41; 6HR MAX TEMP:  57;

$$

WIZ032>034-041-042-053>061-161900-
SOUTHWEST WISCONSIN

CITY           SKY/WX    TMP DP  RH WIND       PRES   REMARKS
LA CROSSE      SUNNY     60  42  51 S5        30.23F
6HR MIN TEMP:  39; 6HR MAX TEMP:  60;

SPARTA         SUNNY     58  37  45 SW7       30.25F
VIROQUA        SUNNY     57  38  48 SW13G18   30.25F
6HR MIN TEMP:  37; 6HR MAX TEMP:  57;

BOSCOBEL       SUNNY     61  37  41 SW9       30.27F
6HR MIN TEMP:  38; 6HR MAX TEMP:  61;

PRAIRIE DU CHI SUNNY     59  36  42 SW7       30.28F
PLATTEVILLE    SUNNY     58  35  42 W8        30.30F
$$

WIZ056-057-062-063-064-067-068-161900-
SOUTH CENTRAL WISCONSIN

CITY           SKY/WX    TMP DP  RH WIND       PRES   REMARKS
REEDSBURG      SUNNY     56  37  48 SW7       30.26F
BARABOO/DELLS  SUNNY     57  36  46 W6        30.26F
LONE ROCK      NOT AVBL
MINERAL POINT  SUNNY     61  36  39 SW6       30.28F
MADISON        MOSUNNY   57  36  45 VRB5      30.26F
6HR MIN TEMP:  37; 6HR MAX TEMP:  57;

MIDDLETON      SUNNY     59  37  43 W9        30.27F
WATERTOWN      SUNNY     57  38  50 SW6       30.26F
MONROE         SUNNY     57  32  38 W12       30.28F
JANESVILLE     SUNNY     61  36  39 MISG      30.27F
$$

WIZ051-052-058>065-066-070>072-161900-
SOUTHEAST WISCONSIN

CITY           SKY/WX    TMP DP  RH WIND       PRES   REMARKS
MILWAUKEE      MOSUNNY   59  37  44 SW9       30.26F
6HR MIN TEMP:  45; 6HR MAX TEMP:  60;

WAUKESHA       SUNNY     55  36  47 SW7       30.27F
MILWAUKEE/TIMM SUNNY     57  30  35 SW6       30.27F
RACINE         SUNNY     60  37  42 SW10      30.27F
6HR MIN TEMP:  44; 6HR MAX TEMP:  60;

BURLINGTON     SUNNY     59  42  54 SW6       30.27F
KENOSHA        SUNNY     59  39  47 SW10      30.27F
6HR MIN TEMP:  38; 6HR MAX TEMP:  59;

FOND DU LAC    SUNNY     57  34  41 W10G18    30.24F
6HR MIN TEMP:  42; 6HR MAX TEMP:  57;

SHEBOYGAN      SUNNY     57  39  51 VRB7      30.24F
6HR MIN TEMP:  42; 6HR MAX TEMP:  57;

WEST BEND      SUNNY     55  36  47 W8        30.25F
JUNEAU         SUNNY     55  36  48 SW9       30.27F
$$

LSZ147-162-161900-
LAKE SUPERIOR

STATION/POSITION TIME  TEMP    WIND        PRES    WAVE
                       AIR SEA DIR/SP/G            HT/PER
                 (UTC) (F)     (DEG/KT/KT) (MB)    (FT/S)
W MID LAKE BUOY  1650   50 53              1019.4R   3/ 5
DEVILS ISLAND    1700   51     230/ 18/ 20 1019.9F
SAXON HARBOR     1740   56     220/  7/ 15 1019.3F
$$

LMZ867-665-643>646-161900-
LAKE MICHIGAN

STATION/POSITION TIME  TEMP    WIND        PRES    WAVE
                       AIR SEA DIR/SP/G            HT/PER
                 (UTC) (F)     (DEG/KT/KT) (MB)    (FT/S)
S GREEN BAY BUOY 1730   52 58  220/ 12/ 16 1022.7F
N MID LAKE BUOY  1650   51 60  240/ 16/ 17 1023.6F   2/ 3
NORTHPORT PIER   1740   54     250/  5/ 11 1022.0F
KEWAUNEE LAKESHO 1730   54     280/  6/ 13 1022.6F
SHEBOYGAN LAKESH 1700   54     240/  8/ 10 1024.9F
PORT WASHINGTON  1730   56     170/  5/ 10 1025.4F
MILWAUKEE LAKESH 1750   57     210/  6/  7   N/A
S MID LAKE BUOY  1650   53 62  270/  6/ 10 1026.4S   2/ 4
KENOSHA   LAKESH 1700   57     210/  6/  9 1025.4
$$

TC  - TEMPERATURE IN CELSIUS
VSB - VISIBILITY IN STATUTE MILES
WCI - WIND CHILL INDEX
HX  - HEAT INDEX





USA.gov is the U.S. government's official web portal to all federal, state and local government web resources and services.